This demonstration page uses our WeatherBlox Daily Observations layout. Learn more.

Left ArrowRight Arrow

44.8408, -93.29828

Hourly Observations for February 21, 2019

Temp ( °F °C ) Dew Point ( °F °C ) Humidity (%) Winds ( mph kmh ) Pressure ( in mb ) Visibility ( mi km ) Precip ( " mm )
12:53 am 00:53 Mostly Clear 12 -11.1 9 -12.8 87 87 WSW 10 17 29.86 1011 8 13 0.00 0.00
1:53 am 01:53 Mostly Clear 11 -11.7 7 -13.9 84 84 WSW 12 19 29.89 1012 8 13 0.00 0.00
2:18 am 02:18 Mostly Cloudy with Mist and Fog 11 -11.7 8 -13.3 88 88 WSW 10 17 29.95 1014 6 10 0.00 0.00
2:36 am 02:36 Cloudy with Mist and Fog 11 -11.7 8 -13.3 88 88 W 12 19 29.95 1014 5 8 0.00 0.00
2:53 am 02:53 Cloudy with Mist and Fog 10 -12.2 7 -13.9 87 87 WSW 9 15 29.92 1013 6 10 0.00 0.00
3:45 am 03:45 Cloudy with Mist and Fog 9 -12.8 7 -13.9 92 92 WSW 10 17 29.99 1016 6 10 0.00 0.00
3:53 am 03:53 Cloudy with Mist and Fog 9 -12.8 7 -13.9 92 92 W 8 13 29.94 1014 6 10 0.00 0.00
4:03 am 04:03 Mostly Cloudy 9 -12.8 6 -14.4 88 88 WSW 8 13 29.99 1016 7 11 0.00 0.00
4:53 am 04:53 Mostly Clear 8 -13.3 5 -15 87 87 W 8 13 29.98 1015 7 11 0.00 0.00
5:39 am 05:39 Cloudy 8 -13.3 5 -15 87 87 WSW 8 13 30.07 1018 7 11 0.00 0.00
5:53 am 05:53 Cloudy 8 -13.3 5 -15 87 87 W 7 11 30.02 1017 7 11 0.00 0.00
6:53 am 06:53 Cloudy 8 -13.3 5 -15 87 87 WSW 7 11 30.05 1018 7 11 0.00 0.00
7:53 am 07:53 Cloudy 9 -12.8 6 -14.4 88 88 SW 7 11 30.10 1019 8 13 0.00 0.00
8:53 am 08:53 Cloudy with Light Snow 8 -13.3 5 -15 87 87 SSW 9 15 30.14 1021 9 14 0.00 0.03
9:53 am 09:53 Cloudy 10 -12.2 6 -14.4 84 84 SW 10 17 30.17 1022 9 14 0.00 0.03
10:24 am 10:24 Cloudy 11 -11.7 7 -13.9 84 84 W 9 15 30.22 1023 9 14 0.00 0.00
10:53 am 10:53 Cloudy with Light Snow 12 -11.1 8 -13.3 84 84 WSW 7 11 30.19 1023 8 13 0.00 0.03
11:24 am 11:24 Mostly Cloudy with Light Snow 14 -10 10 -12.2 84 84 WSW 5 7 30.24 1024 7 11 0.00 0.03
11:53 am 11:53 Mostly Cloudy with Light Snow 14 -10 11 -11.7 88 88 SW 6 9 30.23 1024 8 13 0.00 0.03
12:53 pm 12:53 Mostly Cloudy 18 -7.8 12 -11.1 77 77 WSW 7 11 30.24 1024 8 13 0.00 0.03
1:02 pm 13:02 Partly Cloudy 18 -7.8 13 -10.6 81 81 WSW 7 11 30.27 1025 8 13 0.00 0.00
1:53 pm 13:53 Sunny 18 -7.8 13 -10.6 81 81 SW 9 15 30.24 1024 8 13 0.00 0.00
2:53 pm 14:53 Sunny 20 -6.7 13 -10.6 74 74 SW 6 9 30.25 1024 9 14 0.00 0.00
3:53 pm 15:53 Sunny 20 -6.7 13 -10.6 74 74 SW 10 17 30.26 1025 8 13 0.00 0.00
4:53 pm 16:53 Sunny 19 -7.2 13 -10.6 77 77 SW 7 11 30.28 1025 8 13 0.00 0.00
5:53 pm 17:53 Partly Cloudy 17 -8.3 12 -11.1 80 80 SW 6 9 30.30 1026 9 14 0.00 0.00
6:53 pm 18:53 Partly Cloudy 16 -8.9 12 -11.1 84 84 SW 5 7 30.33 1027 7 11 0.00 0.00
7:53 pm 19:53 Partly Cloudy 14 -10 11 -11.7 88 88 WSW 5 7 30.34 1028 8 13 0.00 0.00
8:53 pm 20:53 Mostly Cloudy 14 -10 12 -11.1 92 92 W 5 7 30.35 1028 8 13 0.00 0.00
9:53 pm 21:53 Mostly Cloudy with Mist and Fog 14 -10 12 -11.1 92 92 WSW 6 9 30.40 1029 6 10 0.00 0.00
10:07 pm 22:07 Cloudy with Mist and Fog 14 -10 12 -11.1 92 92 WSW 3 6 30.42 1030 6 10 0.00 0.00
10:43 pm 22:43 Cloudy with Mist and Fog 14 -10 11 -11.7 88 88 WSW 6 9 30.43 1031 6 10 0.00 0.00
10:53 pm 22:53 Cloudy with Mist and Fog 14 -10 12 -11.1 92 92 W 5 7 30.41 1030 6 10 0.00 0.00
11:53 pm 23:53 Cloudy with Mist and Fog 14 -10 12 -11.1 92 92 WSW 6 9 30.42 1030 6 10 0.00 0.00

Powered by AerisWeather